Weather History for KYKN - June, 2013

Change the Weather History Date:

Friday, June 28, 2013

  Actual Average Record
Temperature  
Mean Temperature 73 °F -  
Max Temperature 84 °F 86 °F 98 °F (1971)
Min Temperature 62 °F 60 °F 49 °F (1976)
Cooling Degree Days 8    
Growing Degree Days 23 (Base 50)    
Moisture  
Dew Point 57 °F    
Average Humidity 57    
Maximum Humidity 83    
Minimum Humidity 32    
Precipitation  
Precipitation 0.00 in - - ()
Sea Level Pressure  
Sea Level Pressure 29.99 in    
Wind  
Wind Speed 13 mph (NW)    
Max Wind Speed 25 mph    
Max Gust Speed 33 mph    
Visibility 10 miles    
Events      
Averages and records for this station are not official NWS values.
T = Trace of Precipitation, MM = Missing Value Source: NWS Daily Summary

Daily Weather History Graph

Daily Weather History Graph

Search for Another Location

Airport or City:

Trip Planner

Search our weather history database for the weather conditions in past years. The results will help you decide how hot, cold, wet, or windy it might be!

Date:

Astronomy

Jun. 28, 2013 Rise Set
Actual Time 5:53 AM CDT 9:12 PM CDT
Civil Twilight 5:18 AM CDT 9:47 PM CDT
Nautical Twilight 4:32 AM CDT 10:33 PM CDT
Astronomical Twilight 3:36 AM CDT 11:29 PM CDT
Moon 12:01 AM CDT (6/28) 12:11 PM CDT (6/28)
Length of Visible Light 16h 29m
Length of Day
15h 19m
Waning Gibbous, 66% of the Moon is Illuminated
Jun 28
Waning Gibbous
Jun 29
Last Quarter
Jul 8
New
Jul 15
First Quarter
Jul 22
Full

Hourly Weather History & Observations

Time (CDT) Temp. Heat Index Dew Point Humidity Pressure Visibility Wind Dir Wind Speed Gust Speed Precip Events Conditions
12:15 AM 75.2 °F - 62.6 °F 65% 29.97 in 10.0 mi West 11.5 mph - N/A   Mostly Cloudy
12:35 AM 75.2 °F - 62.6 °F 65% 29.98 in 10.0 mi West 12.7 mph - N/A   Partly Cloudy
12:55 AM 73.4 °F - 64.4 °F 73% 29.99 in 10.0 mi WNW 9.2 mph - N/A   Partly Cloudy
1:35 AM 71.6 °F - 62.6 °F 73% 30.00 in 10.0 mi WNW 10.4 mph - N/A   Clear
1:55 AM 69.8 °F - 62.6 °F 78% 30.00 in 10.0 mi NW 11.5 mph - N/A   Clear
2:15 AM 69.8 °F - 62.6 °F 78% 30.00 in 10.0 mi NW 9.2 mph - N/A   Clear
2:35 AM 68.0 °F - 62.6 °F 83% 30.00 in 10.0 mi NW 8.1 mph - N/A   Clear
2:55 AM 66.2 °F - 60.8 °F 83% 30.00 in 10.0 mi NW 9.2 mph - N/A   Clear
3:15 AM 66.2 °F - 60.8 °F 83% 30.00 in 10.0 mi NW 10.4 mph - N/A   Clear
3:35 AM 66.2 °F - 60.8 °F 83% 30.00 in 10.0 mi NW 9.2 mph - N/A   Clear
3:55 AM 66.2 °F - 60.8 °F 83% 30.00 in 10.0 mi NW 10.4 mph - N/A   Clear
4:15 AM 64.4 °F - 59.0 °F 83% 30.00 in 10.0 mi NW 9.2 mph - N/A   Clear
4:35 AM 64.4 °F - 59.0 °F 83% 30.00 in 10.0 mi NW 8.1 mph - N/A   Clear
4:55 AM 64.4 °F - 57.2 °F 77% 30.00 in 10.0 mi NW 9.2 mph - N/A   Clear
5:15 AM 64.4 °F - 57.2 °F 77% 30.00 in 10.0 mi NW 9.2 mph - N/A   Clear
5:35 AM 62.6 °F - 57.2 °F 82% 30.01 in 10.0 mi NW 8.1 mph - N/A   Clear
5:55 AM 62.6 °F - 57.2 °F 82% 30.01 in 10.0 mi NW 6.9 mph - N/A   Clear
6:15 AM 62.6 °F - 57.2 °F 82% 30.01 in 10.0 mi NW 8.1 mph - N/A   Clear
6:35 AM 64.4 °F - 57.2 °F 77% 30.02 in 8.0 mi WNW 10.4 mph - N/A   Clear
6:55 AM 64.4 °F - 57.2 °F 77% 30.02 in 10.0 mi WNW 11.5 mph - N/A   Clear
7:15 AM 66.2 °F - 57.2 °F 73% 30.03 in 10.0 mi WNW 12.7 mph - N/A   Clear
7:35 AM 66.2 °F - 57.2 °F 73% 30.03 in 10.0 mi WNW 11.5 mph - N/A   Clear
7:55 AM 68.0 °F - 57.2 °F 68% 30.03 in 10.0 mi WNW 15.0 mph - N/A   Clear
8:15 AM 69.8 °F - 57.2 °F 64% 30.04 in 10.0 mi WNW 15.0 mph 19.6 mph N/A   Clear
8:35 AM 71.6 °F - 57.2 °F 60% 30.04 in 10.0 mi WNW 15.0 mph 18.4 mph N/A   Clear
8:55 AM 71.6 °F - 57.2 °F 60% 30.04 in 10.0 mi WNW 15.0 mph - N/A   Clear
9:15 AM 73.4 °F - 57.2 °F 57% 30.04 in 10.0 mi WNW 11.5 mph - N/A   Clear
9:35 AM 73.4 °F - 59.0 °F 61% 30.03 in 10.0 mi WNW 13.8 mph - N/A   Clear
9:55 AM 75.2 °F - 59.0 °F 57% 30.03 in 10.0 mi WNW 16.1 mph - N/A   Clear
10:15 AM 75.2 °F - 59.0 °F 57% 30.02 in 10.0 mi WNW 13.8 mph - N/A   Clear
10:35 AM 78.8 °F - 59.0 °F 51% 30.02 in 10.0 mi WNW 17.3 mph - N/A   Clear
10:55 AM 78.8 °F - 59.0 °F 51% 30.02 in 10.0 mi WNW 15.0 mph 20.7 mph N/A   Clear
11:15 AM 78.8 °F - 57.2 °F 47% 30.02 in 10.0 mi NW 18.4 mph - N/A   Clear
11:35 AM 80.6 °F 80.8 °F 57.2 °F 45% 30.01 in 10.0 mi NW 17.3 mph 23.0 mph N/A   Clear
11:55 AM 80.6 °F 80.8 °F 57.2 °F 45% 30.01 in 10.0 mi WNW 17.3 mph 25.3 mph N/A   Clear
12:15 PM 80.6 °F 80.8 °F 57.2 °F 45% 30.01 in 10.0 mi NW 20.7 mph 26.5 mph N/A   Clear
12:35 PM 80.6 °F 80.8 °F 57.2 °F 45% 30.01 in 10.0 mi NW 19.6 mph 29.9 mph N/A   Clear
12:55 PM 82.4 °F 82.0 °F 57.2 °F 42% 30.01 in 10.0 mi WNW 21.9 mph 28.8 mph N/A   Partly Cloudy
1:15 PM 82.4 °F 82.0 °F 57.2 °F 42% 30.00 in 10.0 mi NW 20.7 mph 26.5 mph N/A   Clear
1:35 PM 82.4 °F 82.0 °F 57.2 °F 42% 30.00 in 10.0 mi NW 23.0 mph 27.6 mph N/A   Partly Cloudy
1:55 PM 82.4 °F 82.0 °F 57.2 °F 42% 29.99 in 10.0 mi WNW 23.0 mph 29.9 mph N/A   Partly Cloudy
2:15 PM 84.2 °F 83.5 °F 57.2 °F 40% 29.99 in 10.0 mi NW 18.4 mph 28.8 mph N/A   Clear
2:35 PM 84.2 °F 83.5 °F 57.2 °F 40% 29.98 in 10.0 mi NW 24.2 mph 31.1 mph N/A   Partly Cloudy
2:55 PM 82.4 °F 81.7 °F 55.4 °F 39% 29.98 in 10.0 mi NW 21.9 mph 31.1 mph N/A   Partly Cloudy
3:15 PM 84.2 °F 83.0 °F 55.4 °F 37% 29.97 in 10.0 mi NW 20.7 mph 29.9 mph N/A   Partly Cloudy
3:35 PM 84.2 °F 83.5 °F 57.2 °F 40% 29.97 in 10.0 mi NW 20.7 mph 29.9 mph N/A   Partly Cloudy
3:55 PM 84.2 °F 83.0 °F 55.4 °F 37% 29.97 in 10.0 mi NW 24.2 mph 33.4 mph N/A   Clear
4:15 PM 84.2 °F 83.5 °F 57.2 °F 40% 29.97 in 10.0 mi NW 24.2 mph 29.9 mph N/A   Partly Cloudy
4:35 PM 84.2 °F 83.0 °F 55.4 °F 37% 29.97 in 10.0 mi NNW 24.2 mph 32.2 mph N/A   Scattered Clouds
4:55 PM 84.2 °F 82.8 °F 53.6 °F 35% 29.97 in 10.0 mi NW 25.3 mph 33.4 mph N/A   Partly Cloudy
5:15 PM 84.2 °F 82.8 °F 53.6 °F 35% 29.97 in 10.0 mi NW 19.6 mph 26.5 mph N/A   Clear
5:35 PM 82.4 °F 81.4 °F 53.6 °F 37% 29.97 in 10.0 mi NNW 20.7 mph 28.8 mph N/A   Clear
5:55 PM 82.4 °F 81.4 °F 53.6 °F 37% 29.97 in 10.0 mi NNW 21.9 mph 32.2 mph N/A   Clear
6:15 PM 82.4 °F - 51.8 °F 35% 29.96 in 10.0 mi NNW 23.0 mph 28.8 mph N/A   Clear
6:35 PM 82.4 °F - 50.0 °F 32% 29.96 in 10.0 mi NNW 23.0 mph 29.9 mph N/A   Clear
6:55 PM 82.4 °F - 51.8 °F 35% 29.96 in 10.0 mi NNW 16.1 mph 27.6 mph N/A   Clear
7:15 PM 80.6 °F - 50.0 °F 34% 29.95 in 10.0 mi NW 19.6 mph 24.2 mph N/A   Clear
7:35 PM 80.6 °F - 51.8 °F 37% 29.95 in 10.0 mi NW 17.3 mph 21.9 mph N/A   Clear
7:55 PM 78.8 °F - 51.8 °F 39% 29.95 in 10.0 mi NW 13.8 mph - N/A   Clear
8:15 PM 78.8 °F - 51.8 °F 39% 29.95 in 10.0 mi NNW 13.8 mph - N/A   Clear
8:35 PM 75.2 °F - 51.8 °F 44% 29.95 in 10.0 mi NW 10.4 mph - N/A   Clear
8:55 PM 73.4 °F - 53.6 °F 50% 29.95 in 10.0 mi NW 9.2 mph - N/A   Clear
9:15 PM 71.6 °F - 53.6 °F 53% 29.95 in 10.0 mi WNW 8.1 mph - N/A   Clear
9:35 PM 71.6 °F - 53.6 °F 53% 29.95 in 10.0 mi WNW 9.2 mph - N/A   Clear
9:55 PM 69.8 °F - 53.6 °F 56% 29.95 in 10.0 mi WNW 8.1 mph - N/A   Clear
10:15 PM 69.8 °F - 55.4 °F 60% 29.96 in 10.0 mi WNW 9.2 mph - N/A   Clear
10:35 PM 66.2 °F - 55.4 °F 68% 29.96 in 10.0 mi WNW 10.4 mph - N/A   Clear
10:55 PM 68.0 °F - 53.6 °F 60% 29.96 in 10.0 mi WNW 11.5 mph - N/A   Clear
11:15 PM 66.2 °F - 55.4 °F 68% 29.96 in 10.0 mi WNW 10.4 mph - N/A   Clear
11:35 PM 66.2 °F - 55.4 °F 68% 29.96 in 10.0 mi WNW 10.4 mph - N/A   Clear
11:55 PM 66.2 °F - 53.6 °F 64% 29.95 in 10.0 mi WNW 10.4 mph - N/A   Clear